When you browse on this site, cookies collect data to enhance your experience and personalize the content and advertising you see.
Visit our Privacy Policy to learn more. By continuing to use the site, you agree to this use of cookies and data.
  • Em Portugal
  • Lista de países
  • Para 7 dias
  • Temperatura da água
  • Mapas de satélite
  • Mapa do tempo
  • Widgets de tempo
  • user-avatar
    Iniciar Sessão

    Previsão horária em Novosledovo

    Hoje, 21 Julho, Domingo

    Tempo Temperatura Precipitação Vento Pressão Humidade
    00:00 +13°C° 0 mm 1 m/s 740 mmHg 98%
    01:00 +13°C° 0 mm 1 m/s 740 mmHg 98%
    02:00 +13°C° 0 mm 1 m/s 741 mmHg 98%
    03:00 +13°C° 0 mm 1 m/s 741 mmHg 98%
    04:00 +13°C° 0 mm 1 m/s 741 mmHg 98%
    05:00 +13°C° 0 mm 1 m/s 741 mmHg 99%
    06:00 +15°C° 0 mm 1 m/s 741 mmHg 95%
    07:00 +16°C° 0 mm 2 m/s 741 mmHg 91%
    08:00 +18°C° 0 mm 2 m/s 741 mmHg 86%
    09:00 +19°C° 0 mm 2 m/s 741 mmHg 77%
    10:00 +21°C° 0 mm 2 m/s 742 mmHg 67%
    11:00 +23°C° 0 mm 2 m/s 742 mmHg 57%
    12:00 +24°C° 0.2 mm 2 m/s 741 mmHg 58%
    13:00 +24°C° 0.2 mm 1 m/s 741 mmHg 58%
    14:00 +24°C° 0.2 mm 1 m/s 741 mmHg 58%
    15:00 +24°C° 0.6 mm 1 m/s 741 mmHg 67%
    16:00 +23°C° 0.6 mm 1 m/s 741 mmHg 76%
    17:00 +22°C° 0.6 mm 1 m/s 741 mmHg 85%
    18:00 +21°C° 0.3 mm 1 m/s 741 mmHg 87%
    19:00 +19°C° 0.3 mm 1 m/s 741 mmHg 90%
    20:00 +16°C° 0.3 mm 0 m/s 740 mmHg 92%
    21:00 +15°C° 0 mm 0 m/s 741 mmHg 92%
    22:00 +14°C° 0 mm 0 m/s 741 mmHg 93%
    23:00 +13°C° 0 mm 0 m/s 741 mmHg 93%

    Amanhã, 22 Julho, Segunda-feira

    Tempo Temperatura Precipitação Vento Pressão Humidade
    00:00 +13°C° 0 mm 0 m/s 741 mmHg 93%
    01:00 +13°C° 0 mm 0 m/s 741 mmHg 93%
    02:00 +12°C° 0 mm 0 m/s 741 mmHg 93%
    03:00 +13°C° 0 mm 0 m/s 741 mmHg 94%
    04:00 +13°C° 0 mm 0 m/s 741 mmHg 94%
    05:00 +13°C° 0 mm 0 m/s 741 mmHg 94%
    06:00 +15°C° 0 mm 0 m/s 740 mmHg 89%
    07:00 +17°C° 0 mm 0 m/s 740 mmHg 84%
    08:00 +19°C° 0 mm 0 m/s 740 mmHg 79%
    09:00 +21°C° 0.1 mm 0 m/s 740 mmHg 70%
    10:00 +23°C° 0.1 mm 0 m/s 740 mmHg 62%
    11:00 +24°C° 0.1 mm 0 m/s 740 mmHg 53%
    12:00 +26°C° 0.1 mm 1 m/s 740 mmHg 52%
    13:00 +26°C° 0.1 mm 1 m/s 739 mmHg 51%
    14:00 +26°C° 0.1 mm 1 m/s 739 mmHg 49%
    15:00 +25°C° 0.1 mm 1 m/s 739 mmHg 54%
    16:00 +25°C° 0.1 mm 1 m/s 739 mmHg 59%
    17:00 +24°C° 0.1 mm 1 m/s 739 mmHg 63%
    18:00 +22°C° 0.1 mm 1 m/s 739 mmHg 72%
    19:00 +20°C° 0.1 mm 1 m/s 739 mmHg 81%
    20:00 +18°C° 0.1 mm 1 m/s 738 mmHg 90%
    21:00 +16°C° 0.1 mm 1 m/s 738 mmHg 92%
    22:00 +16°C° 0.1 mm 1 m/s 738 mmHg 94%
    23:00 +15°C° 0.1 mm 2 m/s 738 mmHg 97%

    Depois de amanhã, 23 Julho, Terça-feira

    Tempo Temperatura Precipitação Vento Pressão Humidade
    00:00 +15°C° 0 mm 2 m/s 738 mmHg 97%
    01:00 +14°C° 0 mm 2 m/s 738 mmHg 98%
    02:00 +14°C° 0 mm 2 m/s 738 mmHg 98%
    03:00 +14°C° 0.1 mm 2 m/s 738 mmHg 98%
    04:00 +14°C° 0.1 mm 1 m/s 738 mmHg 98%
    05:00 +15°C° 0.1 mm 1 m/s 738 mmHg 98%
    06:00 +16°C° 0.1 mm 1 m/s 738 mmHg 94%
    07:00 +18°C° 0.1 mm 1 m/s 738 mmHg 90%
    08:00 +20°C° 0.1 mm 1 m/s 738 mmHg 86%
    09:00 +19°C° 0.7 mm 2 m/s 738 mmHg 85%
    10:00 +20°C° 0.7 mm 2 m/s 738 mmHg 84%
    11:00 +20°C° 0.7 mm 2 m/s 738 mmHg 82%
    12:00 +21°C° 0.3 mm 2 m/s 738 mmHg 75%
    13:00 +23°C° 0.3 mm 2 m/s 738 mmHg 68%
    14:00 +24°C° 0.3 mm 2 m/s 738 mmHg 61%
    15:00 +24°C° 0.3 mm 2 m/s 738 mmHg 64%
    16:00 +24°C° 0.3 mm 2 m/s 738 mmHg 67%
    17:00 +23°C° 0.3 mm 2 m/s 739 mmHg 71%
    18:00 +20°C° 0.1 mm 2 m/s 738 mmHg 76%
    19:00 +20°C° 0.1 mm 1 m/s 738 mmHg 82%
    20:00 +18°C° 0.1 mm 1 m/s 738 mmHg 87%
    21:00 +16°C° 0 mm 1 m/s 738 mmHg 88%
    22:00 +16°C° 0 mm 1 m/s 739 mmHg 88%
    23:00 +15°C° 0 mm 1 m/s 739 mmHg 89%

    24 Julho, Quarta-feira

    Tempo Temperatura Precipitação Vento Pressão Humidade
    00:00 +14°C° 0 mm 1 m/s 739 mmHg 90%
    01:00 +14°C° 0 mm 1 m/s 739 mmHg 90%
    02:00 +14°C° 0 mm 1 m/s 739 mmHg 91%
    03:00 +14°C° 0 mm 1 m/s 739 mmHg 90%
    04:00 +14°C° 0 mm 1 m/s 740 mmHg 90%
    05:00 +15°C° 0 mm 1 m/s 740 mmHg 89%
    06:00 +18°C° 0 mm 1 m/s 740 mmHg 81%
    07:00 +20°C° 0 mm 1 m/s 740 mmHg 72%
    08:00 +22°C° 0 mm 1 m/s 740 mmHg 64%
    09:00 +23°C° 0 mm 1 m/s 740 mmHg 58%
    10:00 +24°C° 0 mm 2 m/s 741 mmHg 51%
    11:00 +25°C° 0 mm 2 m/s 741 mmHg 44%
    12:00 +26°C° 0 mm 2 m/s 741 mmHg 45%
    13:00 +26°C° 0 mm 2 m/s 741 mmHg 45%
    14:00 +26°C° 0 mm 2 m/s 741 mmHg 45%
    15:00 +26°C° 0 mm 2 m/s 741 mmHg 47%
    16:00 +25°C° 0 mm 2 m/s 741 mmHg 50%
    17:00 +25°C° 0 mm 2 m/s 741 mmHg 53%
    18:00 +21°C° 0 mm 2 m/s 741 mmHg 59%
    19:00 +19°C° 0 mm 2 m/s 741 mmHg 65%
    20:00 +18°C° 0 mm 1 m/s 741 mmHg 71%
    21:00 +16°C° 0 mm 1 m/s 741 mmHg 71%
    22:00 +15°C° 0 mm 1 m/s 742 mmHg 71%
    23:00 +14°C° 0 mm 0 m/s 742 mmHg 71%

    25 Julho, Quinta-feira

    Tempo Temperatura Precipitação Vento Pressão Humidade
    00:00 +14°C° 0 mm 1 m/s 742 mmHg 72%
    01:00 +14°C° 0 mm 1 m/s 742 mmHg 72%
    02:00 +14°C° 0 mm 1 m/s 742 mmHg 73%
    03:00 +14°C° 0 mm 1 m/s 742 mmHg 74%
    04:00 +14°C° 0 mm 1 m/s 743 mmHg 75%
    05:00 +13°C° 0 mm 0 m/s 743 mmHg 76%
    06:00 +16°C° 0 mm 1 m/s 743 mmHg 70%
    07:00 +20°C° 0 mm 1 m/s 743 mmHg 65%
    08:00 +22°C° 0 mm 1 m/s 744 mmHg 60%
    09:00 +23°C° 0 mm 1 m/s 744 mmHg 57%
    10:00 +25°C° 0 mm 1 m/s 744 mmHg 54%
    11:00 +26°C° 0 mm 1 m/s 744 mmHg 51%
    12:00 +26°C° 0 mm 2 m/s 744 mmHg 51%
    13:00 +26°C° 0 mm 2 m/s 743 mmHg 51%
    14:00 +27°C° 0 mm 2 m/s 743 mmHg 51%
    15:00 +26°C° 0 mm 2 m/s 743 mmHg 53%
    16:00 +26°C° 0 mm 2 m/s 743 mmHg 56%
    17:00 +26°C° 0 mm 2 m/s 743 mmHg 59%
    18:00 +24°C° 0 mm 2 m/s 743 mmHg 68%
    19:00 +22°C° 0 mm 1 m/s 743 mmHg 77%
    20:00 +20°C° 0 mm 1 m/s 743 mmHg 86%
    21:00 +19°C° 0 mm 1 m/s 743 mmHg 88%
    22:00 +19°C° 0 mm 1 m/s 743 mmHg 91%
    23:00 +16°C° 0 mm 0 m/s 743 mmHg 93%

    26 Julho, Sexta-feira

    Tempo Temperatura Precipitação Vento Pressão Humidade
    00:00 +16°C° 0 mm 1 m/s 743 mmHg 94%
    01:00 +16°C° 0 mm 1 m/s 743 mmHg 95%
    02:00 +16°C° 0 mm 1 m/s 744 mmHg 96%
    03:00 +16°C° 0 mm 1 m/s 744 mmHg 95%
    04:00 +16°C° 0 mm 1 m/s 744 mmHg 95%
    05:00 +16°C° 0 mm 1 m/s 744 mmHg 95%
    06:00 +19°C° 0 mm 1 m/s 744 mmHg 86%
    07:00 +21°C° 0 mm 1 m/s 744 mmHg 77%
    08:00 +23°C° 0 mm 2 m/s 744 mmHg 69%
    09:00 +24°C° 0 mm 2 m/s 744 mmHg 65%
    10:00 +25°C° 0 mm 2 m/s 744 mmHg 61%
    11:00 +26°C° 0 mm 2 m/s 744 mmHg 57%
    12:00 +26°C° 0 mm 2 m/s 744 mmHg 55%
    13:00 +27°C° 0 mm 3 m/s 743 mmHg 53%
    14:00 +27°C° 0 mm 3 m/s 743 mmHg 51%
    15:00 +27°C° 0 mm 3 m/s 743 mmHg 54%
    16:00 +26°C° 0 mm 3 m/s 742 mmHg 56%
    17:00 +26°C° 0 mm 2 m/s 742 mmHg 59%
    18:00 +24°C° 0 mm 2 m/s 742 mmHg 66%
    19:00 +21°C° 0 mm 2 m/s 742 mmHg 73%
    20:00 +21°C° 0 mm 1 m/s 742 mmHg 81%
    21:00 +20°C° 0 mm 1 m/s 742 mmHg 81%
    22:00 +19°C° 0 mm 1 m/s 742 mmHg 81%
    23:00 +19°C° 0 mm 1 m/s 742 mmHg 82%
    Mostrar mais